Regional Weather Roundup
Issued by NWS Sioux Falls, SD

Home | Current Version | Previous Version | Graphics & Text | Print | Product List | Glossary Off
Versions: 1 2 3 4 5 6 7 8 9 10 11 12 13 14 15 16 17 18 19 20 21 22 23 24 25 26 27 28 29 30 31 32 33 34 35 36 37 38 39 40 41 42 43 44 45 46 47 48 49 50

000
ASUS43 KFSD 252302
RWRFSD

WEATHER ROUNDUP FOR SE SOUTH DAKOTA/SW MINNESOTA/NW IOWA
NATIONAL WEATHER SERVICE SIOUX FALLS SD
500 PM CST SUN JAN 25 2015

NOTE: "FAIR" INDICATES FEW OR NO CLOUDS BELOW 12,000 FEET WITH NO
SIGNIFICANT WEATHER AND OR OBSTRUCTIONS TO VISIBILITY.


SDZ038>040-050-052>070-260000-
SOUTHEAST SOUTH DAKOTA

CITY           SKY/WX    TMP DP  RH WIND       PRES   REMARKS
CHAMBERLAIN    NOT AVBL
HURON          CLOUDY    34  30  85 CALM      30.02F
MADISON        CLOUDY    32  32 100 W7        30.01F WCI  26
MITCHELL       CLOUDY    36  31  82 CALM      30.05S
SIOUX FALLS    CLOUDY    34  31  88 NW5       30.03S WCI  30
WINNER         FAIR      41  30  65 CALM      30.01F
YANKTON        CLOUDY    36  30  80 NW3       30.06S
$$

MNZ071-072-080-081-089-090-097-098-260000-
SOUTHWEST MINNESOTA

CITY           SKY/WX    TMP DP  RH WIND       PRES   REMARKS
FAIRMONT       MOCLDY    28  19  69 N7        30.03S WCI  21
JACKSON        CLOUDY    28  27  93 N3        30.03S
LUVERNE        CLOUDY    34  30  86 NW5       30.03S WCI  30
MARSHALL       CLOUDY    28  23  80 NW5       30.05S WCI  23
MONTEVIDEO     CLOUDY    28  28 100 CALM      30.04F
PIPESTONE      CLOUDY    32  28  86 W5        30.00F WCI  27
REDWOOD FALLS  CLOUDY    30  23  75 CALM      30.04R
TRACY          CLOUDY    29  28  96 NW3       30.04R
WINDOM         CLOUDY    28  27  93 CALM      30.03R
WORTHINGTON    CLOUDY    30  27  86 NW6       30.03S WCI  24
$$

IAZ001>003-012>014-020>022-031-032-NEZ013-014-SDZ071-260000-
NORTHWEST IOWA

CITY           SKY/WX    TMP DP  RH WIND       PRES   REMARKS
ESTHERVILLE    CLOUDY    27  24  89 N6        30.03S WCI  20
SIOUX CITY     CLOUDY    37  33  85 NW8       30.06R
SPENCER        CLOUDY    32  27  81 N7        30.04R WCI  26
$$

ABBREVIATIONS USED IN REMARKS
   TC - TEMPERATURE IN CELSIUS
  WCI - WIND CHILL INDEX
   HX - HEAT INDEX
  VSB - VISIBILITY




USA.gov is the U.S. government's official web portal to all federal, state and local government web resources and services.